[[{"header":{"parameterUnit":"m.s-1","parameterCategory":1,"la1":30.2991,"la2":30.254,"lo1":-89.0895,"lo2":-89.0444,"dy":0.0017,"dx":0.0017,"nx":28,"ny":28,"refTime":"2023-08-23T21:00:00:Z","depth":0,"parameterNumber":2,"parameterNumberName":"U-component_of_WINDS"},"data":[0,0,0,0,0,0,0,0,0,0,0,0,0,0,0,0,0,0,0,0,0,0,0,0,0,0,0,0,0,0,0,0,0,0,0,0,0,0,0,0,0,0,0,0,0,0,0,0,0,0,0,0,0,0,0,0,0,0,-0.1943,-0.1944,0,-0.2021,-0.2022,-0.2023,-0.2046,-0.2046,-0.2045,-0.2045,-0.2127,-0.2129,-0.2132,0,0,0,0,0,0,0,0,0,0,0,0,0,-0.1818,-0.182,-0.1943,-0.1944,-0.1945,-0.2021,-0.2022,-0.2023,-0.2046,-0.2046,-0.2045,-0.2045,-0.2126,-0.2129,-0.2132,0,0,0,0,0,0,0,0,0,0,0,0,0,-0.1881,-0.182,-0.1943,-0.1966,-0.1968,-0.2021,-0.2022,-0.2023,-0.2046,-0.2046,-0.2045,-0.2044,-0.2125,-0.2128,-0.2132,-0.2168,0,0,-0.2144,-0.2146,0,0,0,0,0,0,0,0,-0.1878,-0.1886,-0.1961,-0.1964,-0.1967,-0.2023,-0.2008,-0.2072,-0.2046,-0.2017,-0.2045,-0.2044,-0.2093,-0.2099,-0.2115,-0.2172,-0.2176,-0.2144,-0.2147,-0.2148,-0.2149,0,0,0,0,0,0,0,-0.1873,-0.1883,-0.1974,-0.1962,-0.1966,-0.1973,-0.1981,-0.202,-0.2057,-0.2019,-0.2021,-0.203,-0.2094,-0.2111,-0.2117,-0.2177,-0.2144,-0.2148,-0.215,-0.2152,-0.2269,-0.227,0,0,0,0,0,0,-0.1865,-0.1879,-0.1972,-0.1976,-0.192,-0.1976,-0.1985,-0.2006,-0.2057,-0.2064,-0.203,-0.2031,-0.2105,-0.2113,-0.212,-0.2167,-0.2148,-0.2152,-0.2154,-0.2268,-0.2269,-0.227,0,0,0,0,0,0,-0.1862,-0.1873,-0.1968,-0.1928,-0.1941,-0.1978,-0.2002,-0.2008,-0.2025,-0.2065,-0.2072,-0.2041,-0.2105,-0.2115,-0.2156,-0.217,-0.2154,-0.2157,-0.2267,-0.2269,-0.227,-0.226,0,0,0,0,0,0,-0.1858,-0.1871,-0.1885,-0.1928,-0.1943,-0.2002,-0.2002,-0.201,-0.2031,-0.2032,-0.2077,-0.2084,-0.2105,-0.2151,-0.216,-0.2175,-0.216,-0.2266,-0.2268,-0.2269,-0.2259,-0.2261,-0.2262,0,0,0,0,0,-0.1854,-0.1879,-0.1885,-0.1896,-0.196,-0.2003,-0.2011,-0.2035,-0.2032,-0.2046,-0.2073,-0.2082,-0.2167,-0.2155,-0.2166,-0.2182,-0.2266,-0.2267,-0.2269,-0.2259,-0.2261,-0.2262,0,0,0,0,0,0,-0.1836,-0.1885,-0.1893,-0.1933,-0.1963,-0.2007,-0.2025,-0.2036,-0.2069,-0.2069,-0.2097,-0.2107,-0.2147,-0.2169,-0.2154,-0.2221,-0.2217,-0.2221,-0.2205,-0.2207,-0.2208,-0.2203,-0.2163,0,0,0,0,0,-0.1837,-0.1867,-0.1908,-0.194,-0.1955,-0.1987,-0.2007,-0.2022,-0.2056,-0.2069,-0.2098,-0.2131,-0.2165,-0.2187,-0.2221,-0.2262,-0.2273,-0.2279,-0.2281,-0.2282,-0.2285,-0.2311,-0.2314,-0.2276,-0.2276,-0.2276,0,0,-0.1839,-0.187,-0.1887,-0.1937,-0.1963,-0.1994,-0.1998,-0.2031,-0.2055,-0.2074,-0.2116,-0.2138,-0.2177,-0.2219,-0.2239,-0.2238,-0.2298,-0.2284,-0.2284,-0.2288,-0.2313,-0.2316,-0.232,-0.2277,-0.2277,-0.2277,0,0,-0.186,-0.1885,-0.1914,-0.194,-0.1979,-0.2001,-0.2008,-0.205,-0.2066,-0.2107,-0.2123,-0.2153,-0.221,-0.2238,-0.2259,-0.2291,-0.2302,-0.2301,-0.2309,-0.2333,-0.2336,-0.2339,-0.2352,-0.2356,-0.2304,-0.2304,-0.2304,0,-0.1858,-0.1905,-0.1929,-0.1961,-0.1983,-0.2002,-0.2033,-0.2057,-0.2105,-0.2121,-0.2119,-0.2193,-0.222,-0.227,-0.2278,-0.2294,-0.2304,-0.2297,-0.2334,-0.2337,-0.234,-0.2352,-0.2357,-0.2304,-0.2304,-0.2304,-0.2304,0,-0.1901,-0.1934,-0.1953,-0.1999,-0.2023,-0.2055,-0.2085,-0.2107,-0.2121,-0.2143,-0.2186,-0.222,-0.2261,-0.2274,-0.2287,-0.2326,-0.2324,-0.2328,-0.2325,-0.2343,-0.2355,-0.236,-0.2304,-0.2304,-0.2304,-0.2304,0,0,-0.1913,-0.1972,-0.1979,-0.2,-0.2045,-0.2071,-0.2104,-0.2144,-0.2163,-0.2196,-0.2226,-0.2275,-0.2278,-0.2303,-0.232,-0.2341,-0.2366,-0.2342,-0.2344,-0.2347,-0.2413,-0.2411,-0.2416,-0.2373,-0.2374,-0.2375,-0.241,0,-0.194,-0.1999,-0.2022,-0.207,-0.2102,-0.212,-0.2149,-0.2181,-0.2203,-0.2233,-0.2258,-0.2293,-0.2294,-0.2309,-0.2331,-0.2358,-0.238,-0.2356,-0.2403,-0.2404,-0.2393,-0.2422,-0.242,-0.2451,-0.2415,-0.2415,-0.2416,0,-0.1979,-0.2012,-0.2063,-0.2105,-0.2119,-0.2145,-0.2184,-0.2213,-0.225,-0.2264,-0.2292,-0.2308,-0.2345,-0.2339,-0.2391,-0.2374,-0.2395,-0.2411,-0.2413,-0.2419,-0.2412,-0.243,-0.2461,-0.2466,-0.2424,-0.2423,-0.2423,0,-0.1984,-0.2041,-0.208,-0.2097,-0.2147,-0.2165,-0.2187,-0.2222,-0.2246,-0.228,-0.2296,-0.2334,-0.2356,-0.2386,-0.2413,-0.2406,-0.2463,-0.2459,-0.2478,-0.2477,-0.2489,-0.2488,-0.2525,-0.25,-0.25,-0.25,-0.25,0,-0.2012,-0.2043,-0.2083,-0.2107,-0.2143,-0.2169,-0.2205,-0.2228,-0.226,-0.229,-0.2308,-0.2336,-0.2369,-0.2401,-0.2422,-0.2463,-0.2473,-0.2487,-0.2492,-0.2486,-0.2484,-0.25,-0.2499,-0.2502,-0.2501,-0.2501,-0.2501,0,-0.2024,-0.2051,-0.2095,-0.2139,-0.215,-0.2175,-0.2213,-0.2238,-0.2261,-0.2298,-0.2309,-0.2345,-0.2384,-0.2414,-0.2465,-0.2479,-0.2523,-0.2528,-0.2511,-0.2514,-0.2531,-0.253,-0.2581,-0.2589,-0.2557,-0.2558,-0.2558,0,-0.204,-0.2065,-0.2111,-0.2132,-0.2154,-0.2187,-0.2211,-0.2238,-0.2263,-0.2307,-0.2327,-0.2367,-0.2401,-0.2463,-0.2495,-0.2534,-0.2541,-0.2556,-0.2547,-0.2541,-0.2543,-0.2542,-0.2545,-0.2558,-0.2558,-0.2558,-0.2558,0,-0.2068,-0.208,-0.2113,-0.2152,-0.2179,-0.2211,-0.2243,-0.2259,-0.2293,-0.2319,-0.2359,-0.2386,-0.2438,-0.2478,-0.2521,-0.2545,-0.2558,-0.2561,-0.2568,-0.2562,-0.2551,-0.2559,-0.2515,-0.256,-0.256,-0.2559,-0.2559,-0.2559,-0.2084,-0.2107,-0.2143,-0.218,-0.2207,-0.2236,-0.2262,-0.2288,-0.2322,-0.2366,-0.2381,-0.2423,-0.246,-0.2519,-0.2543,-0.2577,-0.2577,-0.2587,-0.2589,-0.2592,-0.2592,-0.2545,-0.2585,-0.2585,-0.2585,-0.2585,-0.2585,0,-0.2113,-0.2138,-0.2171,-0.2215,-0.2244,-0.2253,-0.2289,-0.2313,-0.235,-0.2383,-0.2416,-0.2463,-0.2503,-0.2538,-0.2579,-0.26,-0.2607,-0.261,-0.261,-0.2615,-0.2589,-0.2579,-0.2604,-0.2604,-0.2604,-0.2604,-0.2604,-0.2604,-0.2132,-0.2172,-0.2189,-0.2244,-0.2268,-0.2309,-0.2329,-0.2357,-0.2384,-0.2436,-0.2468,-0.2491,-0.2525,-0.257,-0.2607,-0.2617,-0.2632,-0.2633,-0.2645,-0.2619,-0.2617,-0.2615,-0.2606,-0.2636,-0.2636,-0.2669,-0.2669,-0.2669]},{"header":{"parameterUnit":"m.s-1","parameterCategory":1,"la1":30.2991,"la2":30.254,"lo1":-89.0895,"lo2":-89.0444,"dy":0.0017,"dx":0.0017,"nx":28,"ny":28,"refTime":"2023-08-23T21:00:00:Z","depth":0,"parameterNumber":3,"parameterNumberName":"V-component_of_WINDS"},"data":[0,0,0,0,0,0,0,0,0,0,0,0,0,0,0,0,0,0,0,0,0,0,0,0,0,0,0,0,0,0,0,0,0,0,0,0,0,0,0,0,0,0,0,0,0,0,0,0,0,0,0,0,0,0,0,0,0,0,2.6668,2.6668,0,2.6716,2.6716,2.6717,2.6708,2.6707,2.6706,2.6705,2.6751,2.6753,2.6755,0,0,0,0,0,0,0,0,0,0,0,0,0,2.6566,2.6568,2.6668,2.6668,2.6669,2.6715,2.6716,2.6717,2.6708,2.6707,2.6706,2.6705,2.675,2.6753,2.6755,0,0,0,0,0,0,0,0,0,0,0,0,0,2.6612,2.6569,2.6668,2.667,2.6671,2.6715,2.6716,2.6717,2.6708,2.6707,2.6705,2.6704,2.6749,2.6752,2.6755,2.6799,0,0,2.6764,2.6766,0,0,0,0,0,0,0,0,2.6609,2.6615,2.6669,2.667,2.6671,2.6704,2.6697,2.6744,2.6708,2.6694,2.6705,2.6704,2.6736,2.674,2.6752,2.6801,2.6803,2.6765,2.6766,2.6768,2.6769,0,0,0,0,0,0,0,2.6606,2.6613,2.6687,2.667,2.6671,2.6668,2.6673,2.6706,2.6721,2.6695,2.6694,2.67,2.6736,2.6749,2.6753,2.6804,2.6765,2.6767,2.6769,2.677,2.6891,2.6893,0,0,0,0,0,0,2.6602,2.6611,2.6685,2.6688,2.6636,2.6671,2.6677,2.6695,2.6721,2.6724,2.6701,2.67,2.6744,2.6749,2.6754,2.6807,2.6768,2.6771,2.6772,2.689,2.6892,2.6893,0,0,0,0,0,0,2.66,2.6609,2.6683,2.6649,2.6658,2.6674,2.6695,2.6697,2.6709,2.6726,2.6728,2.6712,2.6744,2.675,2.6788,2.6808,2.6772,2.6775,2.6888,2.689,2.6892,2.6913,0,0,0,0,0,0,2.6597,2.6608,2.6626,2.665,2.666,2.6717,2.6696,2.6698,2.6715,2.6713,2.6736,2.6739,2.6743,2.6784,2.6791,2.6812,2.6777,2.6886,2.6889,2.6892,2.691,2.6915,2.6919,0,0,0,0,0,2.6594,2.6629,2.6627,2.6636,2.6683,2.6718,2.6724,2.6729,2.6716,2.6733,2.6744,2.6738,2.6805,2.6788,2.6796,2.6818,2.6885,2.6888,2.6891,2.6908,2.6914,2.6919,0,0,0,0,0,0,2.6606,2.6632,2.663,2.6674,2.6694,2.6717,2.6738,2.6736,2.6759,2.6756,2.6761,2.6766,2.6805,2.6815,2.6795,2.6862,2.6843,2.6848,2.6853,2.6859,2.6864,2.6859,2.6779,0,0,0,0,0,2.6614,2.6642,2.6663,2.67,2.671,2.6723,2.6738,2.6741,2.6761,2.6769,2.6783,2.6802,2.6827,2.6844,2.6868,2.6912,2.6917,2.6931,2.6936,2.694,2.6943,2.6967,2.6973,2.6903,2.6903,2.6903,0,0,2.663,2.6648,2.6665,2.6703,2.6718,2.6746,2.673,2.6759,2.678,2.6773,2.681,2.6821,2.6843,2.6884,2.6902,2.6894,2.6964,2.6944,2.6947,2.6948,2.6971,2.6977,2.6983,2.6906,2.6905,2.6905,0,0,2.6674,2.6691,2.6723,2.674,2.6764,2.6772,2.678,2.6804,2.6811,2.6848,2.6844,2.6868,2.6912,2.6927,2.6941,2.6991,2.6986,2.6999,2.7023,2.7045,2.7051,2.7056,2.7073,2.7079,2.7003,2.7003,2.7003,0,2.6691,2.6733,2.674,2.677,2.6787,2.6784,2.6816,2.6831,2.6862,2.6873,2.6863,2.6918,2.6933,2.6977,2.6989,2.7001,2.7009,2.6996,2.705,2.7055,2.7059,2.7076,2.7082,2.7005,2.7004,2.7004,2.7004,0,2.6752,2.6782,2.6805,2.6836,2.6855,2.6886,2.6896,2.6915,2.6916,2.6925,2.6963,2.698,2.7008,2.7019,2.702,2.7064,2.7057,2.7049,2.703,2.7067,2.7083,2.7089,2.7007,2.7006,2.7006,2.7005,0,0,2.6804,2.6839,2.6847,2.6861,2.6888,2.691,2.6941,2.697,2.6985,2.7006,2.7031,2.7069,2.7062,2.7077,2.708,2.71,2.7138,2.7089,2.709,2.7097,2.7186,2.7192,2.7199,2.7135,2.7137,2.7138,2.7184,0,2.6849,2.6905,2.6912,2.696,2.6987,2.6985,2.7012,2.7031,2.7041,2.7064,2.7074,2.7101,2.7089,2.7098,2.7118,2.7129,2.7156,2.7126,2.7158,2.7159,2.7151,2.7207,2.7213,2.7256,2.719,2.7191,2.7192,0,2.6909,2.6934,2.6985,2.7009,2.702,2.7044,2.7071,2.7093,2.7115,2.712,2.7138,2.7139,2.717,2.7151,2.7194,2.7173,2.7187,2.7194,2.7196,2.7198,2.7177,2.7209,2.727,2.7276,2.7202,2.7201,2.72,0,2.694,2.6986,2.7023,2.7035,2.7063,2.708,2.7093,2.7113,2.713,2.7153,2.7163,2.7189,2.7203,2.7223,2.723,2.7216,2.7272,2.7254,2.7276,2.7276,2.7287,2.7286,2.7349,2.7298,2.7298,2.7298,2.7297,0,2.699,2.7021,2.7037,2.7059,2.7094,2.7102,2.7136,2.7148,2.7166,2.719,2.719,2.7213,2.7221,2.7245,2.7251,2.7285,2.7291,2.7296,2.7297,2.7295,2.7294,2.7303,2.73,2.7299,2.7299,2.7299,2.7298,0,2.703,2.7042,2.7082,2.7106,2.7113,2.7137,2.7157,2.7179,2.7188,2.7219,2.7226,2.7241,2.7269,2.7279,2.7312,2.7316,2.7355,2.7354,2.7348,2.7348,2.7369,2.7367,2.7439,2.7449,2.7392,2.7393,2.7393,0,2.706,2.7084,2.7111,2.7128,2.7141,2.7168,2.7185,2.7194,2.7211,2.7238,2.7256,2.7284,2.7306,2.7351,2.7364,2.739,2.7389,2.7412,2.7392,2.739,2.7388,2.7386,2.7388,2.7415,2.7416,2.7417,2.7417,0,2.7112,2.7117,2.7142,2.7169,2.719,2.7211,2.7232,2.7246,2.7258,2.7277,2.7306,2.7324,2.7359,2.7386,2.7413,2.7425,2.7423,2.7423,2.743,2.7428,2.7423,2.7425,2.7357,2.7421,2.7421,2.7421,2.742,2.742,2.7147,2.7168,2.7191,2.7219,2.7236,2.7255,2.7276,2.7289,2.7314,2.7343,2.7347,2.7378,2.7399,2.7434,2.7448,2.7471,2.7465,2.7474,2.7476,2.7478,2.7479,2.742,2.7476,2.7476,2.7476,2.7476,2.7476,0,2.7198,2.7212,2.7238,2.7268,2.729,2.7287,2.7311,2.7329,2.7356,2.7376,2.7399,2.7432,2.7459,2.7475,2.7501,2.7517,2.7517,2.7524,2.7522,2.7525,2.7484,2.7476,2.7524,2.7524,2.7524,2.7524,2.7524,2.7524,2.7227,2.7263,2.727,2.7314,2.7328,2.7359,2.7373,2.7391,2.7407,2.7444,2.7466,2.7477,2.7495,2.7523,2.7548,2.7552,2.7561,2.7568,2.7572,2.7533,2.7528,2.7523,2.7515,2.7571,2.7571,2.761,2.7611,2.7611]}]]